Location: Unnamed
(51.8936°N, 11.0665°E)
Time: 18:11:21
(UTC+02:00)

KAITUO 1B - Pass Details

Date: 26 September 2021
Orbit: 488 x 510 km, 97.4° (Epoch: 17 October)

Event Time Altitude Azimuth Distance (km) Brightness Sun altitude
Rises 20:14:16 0° 220° (SW) 2,599 ? -11.5°
Reaches altitude 10° 20:18:14 10° 264° (W) 1,716 ? -12.1°
Maximum altitude 20:18:51 10° 273° (W) 1,695 ? -12.2°
Drops below altitude 10° 20:19:28 10° 283° (WNW) 1,717 ? -12.3°
Sets 20:23:26 0° 327° (NNW) 2,602 ? -12.9°
